| time (UTC) | temp F | wind direction | speed knots | gust knots | rain 1hr in | rain 24hr in | rain mn in | humidity % | barometer mb |
| 20260510084501 | 70 | 114 | 0.0 | 2.6 | 0.00 | 0.03 | 0.00 | 86 | 1009.0 |
| 20260510083001 | 71 | 146 | 0.0 | 2.6 | 0.00 | 0.03 | 0.00 | 86 | 1009.2 |
| 20260510081502 | 71 | 83 | 1.7 | 5.2 | 0.00 | 0.03 | 0.00 | 86 | 1009.4 |
| 20260510080003 | 70 | 88 | 0.0 | 1.7 | 0.00 | 0.03 | 0.00 | 86 | 1009.4 |
| 20260510074501 | 70 | 88 | 0.0 | 1.7 | 0.00 | 0.03 | 0.00 | 85 | 1009.3 |
| 20260510073001 | 70 | 88 | 0.9 | 1.7 | 0.00 | 0.03 | 0.00 | 84 | 1009.4 |
| 20260510071502 | 71 | 49 | 0.0 | 2.6 | 0.00 | 0.03 | 0.00 | 83 | 1009.4 |
| 20260510070003 | 71 | 68 | 0.0 | 3.5 | 0.00 | 0.03 | 0.00 | 83 | 1009.4 |
| 20260510064505 | 71 | 66 | 0.0 | 2.6 | 0.00 | 0.03 | 0.00 | 82 | 1009.3 |
| 20260510063002 | 72 | 86 | 0.9 | 3.5 | 0.00 | 0.03 | 0.00 | 82 | 1009.3 |
| 20260510061503 | 72 | 126 | 0.9 | 2.6 | 0.00 | 0.03 | 0.00 | 82 | 1009.2 |
| 20260510060009 | 72 | 67 | 0.0 | 1.7 | 0.00 | 0.03 | 0.00 | 83 | 1009.2 |
| 20260510054504 | 72 | 62 | 0.9 | 2.6 | 0.00 | 0.03 | 0.00 | 84 | 1009.0 |
| 20260510053012 | 73 | 66 | 0.9 | 2.6 | 0.00 | 0.03 | 0.00 | 84 | 1009.0 |
| 20260510051507 | 73 | 63 | 0.9 | 2.6 | 0.00 | 0.03 | 0.00 | 84 | 1009.1 |
| 20260510050008 | 74 | 57 | 0.9 | 2.6 | 0.00 | 0.03 | 0.00 | 83 | 1009.2 |
| 20260510044509 | 75 | 62 | 0.9 | 2.6 | 0.00 | 0.03 | 0.03 | 82 | 1009.0 |
| 20260510043004 | 76 | 66 | 0.0 | 1.7 | 0.00 | 0.03 | 0.03 | 80 | 1009.1 |
| 20260510041510 | 76 | 66 | 0.0 | 1.7 | 0.00 | 0.03 | 0.03 | 79 | 1008.9 |
| 20260510040005 | 76 | 66 | 0.0 | 1.7 | 0.00 | 0.03 | 0.03 | 79 | 1008.9 |
| 20260510034503 | 76 | 80 | 0.0 | 1.7 | 0.00 | 0.03 | 0.03 | 79 | 1008.8 |
| 20260510033002 | 77 | 80 | 0.0 | 1.7 | 0.00 | 0.03 | 0.03 | 79 | 1008.6 |
| 20260510031504 | 77 | 105 | 0.0 | 3.5 | 0.00 | 0.03 | 0.03 | 79 | 1008.4 |
| 20260510030008 | 78 | 98 | 0.0 | 2.6 | 0.00 | 0.03 | 0.03 | 79 | 1008.3 |
| 20260510024504 | 78 | 67 | 0.0 | 2.6 | 0.00 | 0.03 | 0.03 | 79 | 1008.1 |
| 20260510023003 | 79 | 59 | 0.9 | 6.1 | 0.00 | 0.03 | 0.03 | 78 | 1007.9 |
| 20260510021511 | 79 | 111 | 0.9 | 3.5 | 0.00 | 0.03 | 0.03 | 76 | 1007.7 |
| 20260510020006 | 80 | 114 | 0.9 | 2.6 | 0.00 | 0.03 | 0.03 | 75 | 1007.5 |
| 20260510014503 | 80 | 114 | 0.0 | 2.6 | 0.00 | 0.03 | 0.03 | 74 | 1007.2 |
| 20260510013004 | 81 | 104 | 0.0 | 1.7 | 0.00 | 0.03 | 0.03 | 72 | 1007.1 |
| 20260510011503 | 81 | 145 | 0.9 | 2.6 | 0.00 | 0.03 | 0.03 | 71 | 1007.0 |
| 20260510010006 | 82 | 96 | 0.9 | 3.5 | 0.00 | 0.03 | 0.03 | 69 | 1006.9 |
| 20260510004503 | 83 | 93 | 0.0 | 3.5 | 0.00 | 0.03 | 0.03 | 67 | 1006.8 |
| 20260510003004 | 84 | 91 | 0.9 | 4.3 | 0.00 | 0.03 | 0.03 | 64 | 1006.7 |
| 20260510001503 | 85 | 86 | 0.9 | 7.0 | 0.00 | 0.03 | 0.03 | 63 | 1006.6 |
| 20260510000009 | 86 | 86 | 1.7 | 4.3 | 0.00 | 0.03 | 0.03 | 61 | 1006.5 |
| 20260509234510 | 86 | 113 | 0.9 | 6.1 | 0.00 | 0.03 | 0.03 | 60 | 1006.3 |
| 20260509233006 | 87 | 123 | 0.9 | 5.2 | 0.00 | 0.03 | 0.03 | 58 | 1006.1 |
| 20260509231502 | 87 | 52 | 1.7 | 7.0 | 0.00 | 0.03 | 0.03 | 54 | 1006.2 |
| 20260509230006 | 88 | 64 | 1.7 | 7.0 | 0.00 | 0.03 | 0.03 | 53 | 1006.2 |
| 20260509224508 | 88 | 121 | 1.7 | 7.8 | 0.00 | 0.03 | 0.03 | 51 | 1006.1 |
| 20260509223003 | 88 | 88 | 1.7 | 7.0 | 0.00 | 0.03 | 0.03 | 43 | 1006.2 |
| 20260509221503 | 88 | 105 | 2.6 | 7.0 | 0.00 | 0.03 | 0.03 | 45 | 1006.1 |
| 20260509220005 | 88 | 55 | 2.6 | 7.0 | 0.00 | 0.03 | 0.03 | 48 | 1006.2 |
| 20260509214502 | 88 | 51 | 1.7 | 7.0 | 0.00 | 0.03 | 0.03 | 48 | 1006.2 |
| 20260509213003 | 89 | 141 | 1.7 | 6.1 | 0.00 | 0.03 | 0.03 | 51 | 1006.5 |
| 20260509211502 | 89 | 97 | 2.6 | 7.8 | 0.00 | 0.03 | 0.03 | 51 | 1006.6 |
| 20260509210004 | 89 | 65 | 1.7 | 7.0 | 0.00 | 0.03 | 0.03 | 54 | 1006.7 |
| 20260509204505 | 88 | 130 | 1.7 | 9.6 | 0.00 | 0.03 | 0.03 | 54 | 1006.8 |
| 20260509203002 | 87 | 74 | 2.6 | 8.7 | 0.00 | 0.03 | 0.03 | 54 | 1007.1 |
| 20260509201503 | 86 | 55 | 5.2 | 12.2 | 0.00 | 0.03 | 0.03 | 52 | 1007.3 |
| 20260509200005 | 90 | 58 | 5.2 | 9.6 | 0.00 | 0.03 | 0.03 | 55 | 1007.6 |
| 20260509194502 | 88 | 20 | 1.7 | 5.2 | 0.00 | 0.03 | 0.03 | 58 | 1007.6 |
| 20260509193006 | 90 | 323 | 0.9 | 4.3 | 0.00 | 0.03 | 0.03 | 56 | 1007.5 |
| 20260509191503 | 90 | 71 | 1.7 | 6.1 | 0.00 | 0.03 | 0.03 | 56 | 1007.7 |
| 20260509190009 | 89 | 286 | 0.9 | 5.2 | 0.00 | 0.03 | 0.03 | 62 | 1007.7 |
| 20260509184502 | 89 | 101 | 0.9 | 7.0 | 0.00 | 0.03 | 0.03 | 60 | 1008.1 |
| 20260509183003 | 88 | 257 | 4.3 | 9.6 | 0.00 | 0.03 | 0.03 | 61 | 1008.4 |
| 20260509181502 | 87 | 236 | 1.7 | 8.7 | 0.00 | 0.03 | 0.03 | 65 | 1008.6 |
| 20260509180005 | 86 | 305 | 0.9 | 6.1 | 0.00 | 0.03 | 0.03 | 65 | 1008.8 |
| 20260509174506 | 86 | 284 | 0.9 | 7.8 | 0.00 | 0.03 | 0.03 | 69 | 1008.9 |
| 20260509173004 | 86 | 249 | 1.7 | 6.1 | 0.00 | 0.03 | 0.03 | 69 | 1009.3 |
| 20260509171501 | 85 | 309 | 0.9 | 4.3 | 0.00 | 0.03 | 0.03 | 72 | 1009.4 |
| 20260509170005 | 84 | 241 | 0.9 | 4.3 | 0.00 | 0.03 | 0.03 | 76 | 1009.4 |
| 20260509164503 | 82 | 250 | 1.7 | 6.1 | 0.00 | 0.03 | 0.03 | 77 | 1009.4 |
| 20260509163002 | 82 | 267 | 0.9 | 4.3 | 0.00 | 0.03 | 0.03 | 79 | 1009.6 |
| 20260509161502 | 81 | 272 | 0.9 | 7.8 | 0.00 | 0.03 | 0.03 | 82 | 1009.5 |
| 20260509160005 | 79 | 236 | 2.6 | 7.0 | 0.00 | 0.03 | 0.03 | 84 | 1009.6 |
| 20260509154502 | 78 | 194 | 1.7 | 7.0 | 0.00 | 0.03 | 0.03 | 87 | 1009.7 |
| 20260509153003 | 76 | 217 | 1.7 | 6.1 | 0.00 | 0.03 | 0.03 | 91 | 1009.7 |